Simultaneous Nadir Overpasses (SNOs) Predictions

Prediction of SNOs between AQUA and NOAA-19 Satellite Orbit:

Table of predicted SNOs for the next 14.0 days since TLE Epoch: 4/15/2023
Index Date (AQUA) Time (AQUA) Lat,Lon (AQUA) SZA (AQUA ) Date (NOAA-19) Time (NOAA-19) Lat,Lon (NOAA-19) SZA (NOAA-19 ) Distance(km) Time Diff (sec)
1 04/16/2023 14:54:36 -76.61, 125.66 113.40 04/16/2023 14:53:45 -76.62, 125.72 113.38 2.04 51
2 04/16/2023 15:44:02 76.65, -66.82 66.64 04/16/2023 15:44:39 76.67, -66.80 66.65 2.90 37
3 04/18/2023 20:26:30 76.64,-137.41 65.86 04/18/2023 20:26:15 76.61,-137.39 65.83 3.80 15
4 04/18/2023 21:16:03 -77.04, 28.78 113.70 04/18/2023 21:17:09 -77.05, 31.75 113.83 73.88 66
5 04/21/2023 01:08:56 76.59, 152.19 65.03 04/21/2023 01:07:50 76.58, 152.18 65.04 0.89 66
6 04/21/2023 01:58:22 -76.66, -40.41 114.90 04/21/2023 01:58:53 -76.67, -40.26 114.91 3.99 31
7 04/23/2023 06:40:47 -76.60,-110.80 115.71 04/23/2023 06:40:29 -76.60,-110.84 115.71 1.08 18
8 04/23/2023 07:30:13 76.65, 56.69 64.33 04/23/2023 07:31:22 76.64, 56.61 64.32 2.16 69
9 04/25/2023 11:23:12 -76.59, 178.66 116.46 04/25/2023 11:22:04 -76.57, 178.72 116.46 2.49 68
10 04/25/2023 12:12:38 76.64, -13.87 63.59 04/25/2023 12:12:56 76.65, -13.71 63.59 3.95 18
11 04/27/2023 16:55:01 76.58, -84.24 62.81 04/27/2023 16:54:31 76.60, -84.24 62.84 1.58 30



Historial Predications of SNOs between AQUA and NOAA-19
